| time (UTC) | temp F | wind direction | speed knots | gust knots | rain 1hr in | rain 24hr in | rain mn in | humidity % | barometer mb |
| 20260507224938 | 62 | 68 | 1.7 | 3.5 | 0.00 | 0.03 | 0.00 | 86 | 1012.8 |
| 20260507224738 | 62 | 45 | 1.7 | 1.7 | 0.00 | 0.03 | 0.00 | 86 | 1012.7 |
| 20260507224544 | 62 | 22 | 1.7 | 3.5 | 0.00 | 0.03 | 0.00 | 86 | 1012.9 |
| 20260507224338 | 62 | 68 | 1.7 | 3.5 | 0.00 | 0.03 | 0.00 | 86 | 1012.9 |
| 20260507223940 | 62 | 45 | 2.6 | 3.5 | 0.00 | 0.03 | 0.00 | 87 | 1013.2 |
| 20260507223737 | 62 | 45 | 1.7 | 3.5 | 0.00 | 0.03 | 0.00 | 87 | 1013.1 |
| 20260507223540 | 61 | 45 | 1.7 | 3.5 | 0.00 | 0.03 | 0.00 | 87 | 1013.1 |
| 20260507222939 | 61 | 22 | 1.7 | 3.5 | 0.00 | 0.03 | 0.00 | 87 | 1013.2 |
| 20260507222737 | 61 | 45 | 2.6 | 3.5 | 0.00 | 0.03 | 0.00 | 87 | 1013.1 |
| 20260507222545 | 61 | 45 | 1.7 | 1.7 | 0.00 | 0.03 | 0.00 | 87 | 1013.1 |
| 20260507222337 | 61 | 22 | 1.7 | 1.7 | 0.00 | 0.03 | 0.00 | 87 | 1013.3 |
| 20260507222139 | 61 | 22 | 0.9 | 1.7 | 0.00 | 0.03 | 0.00 | 87 | 1013.2 |
| 20260507221938 | 61 | 68 | 1.7 | 1.7 | 0.00 | 0.03 | 0.00 | 87 | 1013.4 |
| 20260507221737 | 61 | 45 | 1.7 | 1.7 | 0.00 | 0.04 | 0.00 | 87 | 1013.2 |
| 20260507221544 | 61 | 45 | 0.0 | 1.7 | 0.00 | 0.04 | 0.00 | 87 | 1013.3 |
| 20260507221338 | 61 | 45 | 0.9 | 1.7 | 0.00 | 0.04 | 0.00 | 87 | 1013.2 |
| 20260507220737 | 61 | 45 | 0.9 | 1.7 | 0.00 | 0.04 | 0.00 | 86 | 1013.1 |
| 20260507220541 | 61 | 45 | 0.9 | 1.7 | 0.00 | 0.04 | 0.00 | 86 | 1013.1 |
| 20260507220337 | 61 | 22 | 0.9 | 1.7 | 0.00 | 0.04 | 0.00 | 86 | 1013.2 |
| 20260507220229 | 61 | 22 | 0.9 | 1.7 | 0.00 | 0.04 | 0.04 | 86 | 1013.2 |
| 20260507215937 | 61 | 45 | 0.0 | 1.7 | 0.00 | 0.04 | 0.04 | 86 | 1013.4 |
| 20260507215737 | 61 | 68 | 0.0 | 1.7 | 0.00 | 0.04 | 0.04 | 86 | 1013.4 |
| 20260507215544 | 61 | 68 | 0.0 | 0.0 | 0.00 | 0.04 | 0.04 | 86 | 1013.3 |
| 20260507215138 | 61 | 90 | 0.9 | 1.7 | 0.00 | 0.04 | 0.04 | 86 | 1013.4 |
| 20260507214939 | 61 | 22 | 0.0 | 0.0 | 0.00 | 0.04 | 0.04 | 86 | 1013.2 |
| 20260507214737 | 61 | 22 | 0.0 | 0.0 | 0.00 | 0.04 | 0.04 | 86 | 1013.3 |
| 20260507214544 | 61 | 22 | 0.0 | 0.0 | 0.00 | 0.04 | 0.04 | 86 | 1013.3 |
| 20260507214339 | 61 | 22 | 0.0 | 0.0 | 0.00 | 0.04 | 0.04 | 86 | 1013.3 |
| 20260507214140 | 61 | 22 | 0.0 | 0.0 | 0.00 | 0.04 | 0.04 | 86 | 1013.1 |
| 20260507213939 | 61 | 68 | 0.9 | 1.7 | 0.00 | 0.04 | 0.04 | 86 | 1013.2 |
| 20260507213737 | 61 | 68 | 0.9 | 1.7 | 0.00 | 0.04 | 0.04 | 86 | 1013.3 |
| 20260507213543 | 61 | 68 | 1.7 | 1.7 | 0.00 | 0.04 | 0.04 | 86 | 1013.2 |
| 20260507213338 | 61 | 68 | 1.7 | 1.7 | 0.00 | 0.05 | 0.04 | 86 | 1013.1 |
| 20260507212938 | 61 | 112 | 1.7 | 1.7 | 0.00 | 0.05 | 0.04 | 85 | 1013.4 |
| 20260507212737 | 61 | 68 | 1.7 | 1.7 | 0.00 | 0.05 | 0.04 | 85 | 1013.2 |
| 20260507212545 | 61 | 68 | 1.7 | 1.7 | 0.00 | 0.05 | 0.04 | 86 | 1013.3 |
| 20260507212338 | 61 | 90 | 1.7 | 3.5 | 0.00 | 0.05 | 0.04 | 85 | 1013.3 |
| 20260507212139 | 61 | 68 | 0.9 | 1.7 | 0.00 | 0.05 | 0.04 | 85 | 1013.4 |
| 20260507211937 | 61 | 68 | 0.0 | 1.7 | 0.00 | 0.05 | 0.04 | 85 | 1013.3 |
| 20260507211737 | 61 | 68 | 1.7 | 1.7 | 0.00 | 0.05 | 0.04 | 85 | 1013.5 |
| 20260507211544 | 61 | 45 | 1.7 | 1.7 | 0.00 | 0.05 | 0.04 | 85 | 1013.3 |
| 20260507211339 | 61 | 68 | 0.0 | 1.7 | 0.00 | 0.05 | 0.04 | 85 | 1013.4 |
| 20260507211139 | 61 | 45 | 0.0 | 1.7 | 0.00 | 0.05 | 0.04 | 85 | 1013.4 |
| 20260507210737 | 60 | 45 | 0.9 | 1.7 | 0.00 | 0.05 | 0.04 | 85 | 1013.3 |
| 20260507210542 | 60 | 22 | 0.0 | 1.7 | 0.00 | 0.05 | 0.04 | 85 | 1013.4 |
| 20260507210138 | 60 | 22 | 0.9 | 1.7 | 0.00 | 0.05 | 0.04 | 85 | 1013.5 |
| 20260507205937 | 61 | 0 | 0.0 | 0.0 | 0.00 | 0.05 | 0.04 | 84 | 1013.5 |
| 20260507205737 | 61 | 0 | 0.0 | 0.0 | 0.00 | 0.05 | 0.04 | 84 | 1013.5 |
| 20260507205544 | 61 | 22 | 0.0 | 0.0 | 0.00 | 0.05 | 0.04 | 84 | 1013.6 |
| 20260507205338 | 61 | 22 | 0.0 | 1.7 | 0.00 | 0.05 | 0.04 | 84 | 1013.4 |
| 20260507205138 | 61 | 22 | 0.0 | 0.0 | 0.00 | 0.05 | 0.04 | 84 | 1013.4 |
| 20260507204937 | 61 | 22 | 0.0 | 1.7 | 0.00 | 0.05 | 0.04 | 84 | 1013.6 |
| 20260507204737 | 61 | 22 | 0.0 | 1.7 | 0.00 | 0.05 | 0.04 | 84 | 1013.5 |
| 20260507204338 | 61 | 22 | 0.0 | 0.0 | 0.00 | 0.05 | 0.04 | 83 | 1013.6 |
| 20260507204140 | 61 | 0 | 0.9 | 1.7 | 0.00 | 0.05 | 0.04 | 83 | 1013.5 |
| 20260507203939 | 61 | 22 | 1.7 | 1.7 | 0.00 | 0.05 | 0.04 | 83 | 1013.6 |
| 20260507203737 | 61 | 22 | 0.9 | 1.7 | 0.00 | 0.05 | 0.04 | 83 | 1013.6 |
| 20260507203337 | 61 | 22 | 1.7 | 1.7 | 0.00 | 0.05 | 0.04 | 83 | 1013.7 |
| 20260507202938 | 61 | 22 | 0.9 | 1.7 | 0.00 | 0.05 | 0.04 | 82 | 1013.7 |
| 20260507202738 | 61 | 0 | 0.9 | 1.7 | 0.00 | 0.05 | 0.04 | 82 | 1013.6 |
| 20260507202545 | 62 | 45 | 0.9 | 1.7 | 0.00 | 0.05 | 0.04 | 82 | 1013.7 |
| 20260507202339 | 62 | 22 | 0.9 | 1.7 | 0.00 | 0.05 | 0.04 | 82 | 1013.6 |
| 20260507202139 | 62 | 45 | 1.7 | 3.5 | 0.00 | 0.05 | 0.04 | 82 | 1013.7 |
| 20260507201936 | 62 | 68 | 1.7 | 3.5 | 0.00 | 0.05 | 0.04 | 81 | 1013.6 |
| 20260507201739 | 62 | 22 | 1.7 | 1.7 | 0.00 | 0.05 | 0.04 | 81 | 1013.7 |
| 20260507201544 | 62 | 68 | 1.7 | 1.7 | 0.00 | 0.05 | 0.04 | 81 | 1013.7 |
| 20260507201139 | 62 | 68 | 1.7 | 1.7 | 0.00 | 0.05 | 0.04 | 81 | 1013.7 |
| 20260507200939 | 62 | 68 | 1.7 | 1.7 | 0.00 | 0.05 | 0.04 | 81 | 1013.9 |
| 20260507200738 | 62 | 90 | 1.7 | 3.5 | 0.00 | 0.05 | 0.04 | 81 | 1013.6 |
| 20260507200541 | 62 | 68 | 0.9 | 1.7 | 0.00 | 0.05 | 0.04 | 81 | 1013.7 |
| 20260507200138 | 62 | 90 | 1.7 | 3.5 | 0.00 | 0.05 | 0.04 | 80 | 1013.9 |
| 20260507195544 | 62 | 90 | 1.7 | 1.7 | 0.00 | 0.05 | 0.04 | 79 | 1014.0 |
| 20260507195338 | 62 | 68 | 1.7 | 3.5 | 0.00 | 0.05 | 0.04 | 79 | 1013.9 |
| 20260507195139 | 62 | 45 | 1.7 | 1.7 | 0.00 | 0.05 | 0.04 | 78 | 1014.0 |
| 20260507194937 | 62 | 68 | 2.6 | 3.5 | 0.00 | 0.05 | 0.04 | 78 | 1013.8 |
| 20260507194544 | 62 | 90 | 2.6 | 3.5 | 0.00 | 0.05 | 0.04 | 78 | 1013.9 |
| 20260507194338 | 62 | 90 | 2.6 | 3.5 | 0.00 | 0.05 | 0.04 | 78 | 1014.0 |
| 20260507194138 | 62 | 112 | 1.7 | 3.5 | 0.00 | 0.05 | 0.04 | 78 | 1014.1 |
| 20260507193940 | 62 | 68 | 2.6 | 5.2 | 0.00 | 0.05 | 0.04 | 78 | 1013.8 |
| 20260507193738 | 62 | 112 | 2.6 | 3.5 | 0.00 | 0.05 | 0.04 | 78 | 1013.9 |
| 20260507193338 | 62 | 90 | 1.7 | 1.7 | 0.00 | 0.05 | 0.04 | 78 | 1013.9 |
| 20260507193139 | 62 | 112 | 1.7 | 1.7 | 0.00 | 0.05 | 0.04 | 79 | 1013.9 |
| 20260507192938 | 62 | 90 | 1.7 | 3.5 | 0.00 | 0.05 | 0.04 | 79 | 1014.0 |
| 20260507192543 | 62 | 90 | 1.7 | 1.7 | 0.00 | 0.05 | 0.04 | 80 | 1013.7 |
| 20260507192139 | 62 | 90 | 1.7 | 1.7 | 0.00 | 0.05 | 0.04 | 80 | 1013.6 |
| 20260507191738 | 62 | 68 | 0.9 | 1.7 | 0.00 | 0.05 | 0.04 | 80 | 1013.7 |
| 20260507191339 | 62 | 90 | 0.9 | 1.7 | 0.00 | 0.05 | 0.04 | 80 | 1013.8 |
| 20260507191139 | 62 | 45 | 1.7 | 3.5 | 0.00 | 0.05 | 0.04 | 80 | 1013.9 |
| 20260507190939 | 62 | 68 | 0.9 | 1.7 | 0.00 | 0.05 | 0.04 | 80 | 1013.8 |
| 20260507190737 | 62 | 90 | 1.7 | 1.7 | 0.00 | 0.05 | 0.04 | 80 | 1013.8 |
| 20260507190337 | 62 | 90 | 1.7 | 3.5 | 0.00 | 0.05 | 0.04 | 80 | 1013.7 |
| 20260507190141 | 62 | 90 | 0.0 | 1.7 | 0.00 | 0.05 | 0.04 | 80 | 1013.9 |
| 20260507185938 | 62 | 112 | 1.7 | 1.7 | 0.00 | 0.05 | 0.04 | 80 | 1013.8 |
| 20260507185738 | 62 | 90 | 1.7 | 1.7 | 0.00 | 0.05 | 0.04 | 80 | 1013.7 |
| 20260507185544 | 62 | 90 | 1.7 | 1.7 | 0.00 | 0.05 | 0.04 | 80 | 1013.5 |
| 20260507185339 | 62 | 90 | 1.7 | 1.7 | 0.00 | 0.05 | 0.04 | 80 | 1013.6 |
| 20260507185140 | 62 | 68 | 1.7 | 1.7 | 0.00 | 0.05 | 0.04 | 79 | 1013.6 |
| 20260507184938 | 62 | 68 | 1.7 | 3.5 | 0.00 | 0.05 | 0.04 | 79 | 1013.5 |
| 20260507184737 | 62 | 112 | 1.7 | 3.5 | 0.00 | 0.05 | 0.04 | 79 | 1013.5 |
| 20260507184544 | 62 | 112 | 1.7 | 3.5 | 0.00 | 0.05 | 0.04 | 79 | 1013.5 |
| 20260507184338 | 62 | 90 | 1.7 | 3.5 | 0.00 | 0.05 | 0.04 | 78 | 1013.6 |
| 20260507183939 | 63 | 90 | 2.6 | 3.5 | 0.00 | 0.05 | 0.04 | 78 | 1013.6 |
| 20260507183739 | 63 | 90 | 2.6 | 3.5 | 0.00 | 0.05 | 0.04 | 77 | 1013.6 |
| 20260507183541 | 63 | 90 | 1.7 | 3.5 | 0.00 | 0.05 | 0.04 | 77 | 1013.6 |
| 20260507183338 | 63 | 112 | 1.7 | 1.7 | 0.00 | 0.05 | 0.04 | 76 | 1013.4 |
| 20260507183138 | 63 | 112 | 1.7 | 3.5 | 0.00 | 0.05 | 0.04 | 76 | 1013.6 |
| 20260507182938 | 63 | 112 | 1.7 | 3.5 | 0.00 | 0.05 | 0.04 | 76 | 1013.3 |
| 20260507182737 | 63 | 90 | 2.6 | 3.5 | 0.00 | 0.05 | 0.04 | 75 | 1013.4 |
| 20260507182544 | 63 | 112 | 2.6 | 5.2 | 0.00 | 0.05 | 0.04 | 74 | 1013.3 |
| 20260507182338 | 64 | 112 | 1.7 | 3.5 | 0.00 | 0.05 | 0.04 | 74 | 1013.5 |
| 20260507182140 | 63 | 90 | 1.7 | 3.5 | 0.00 | 0.05 | 0.04 | 74 | 1013.4 |
| 20260507181939 | 63 | 112 | 3.5 | 6.1 | 0.00 | 0.05 | 0.04 | 74 | 1013.4 |
| 20260507181737 | 63 | 112 | 3.5 | 3.5 | 0.00 | 0.05 | 0.04 | 74 | 1013.4 |
| 20260507181544 | 63 | 112 | 2.6 | 5.2 | 0.00 | 0.05 | 0.04 | 74 | 1013.5 |
| 20260507181339 | 63 | 112 | 3.5 | 5.2 | 0.00 | 0.05 | 0.04 | 74 | 1013.4 |
| 20260507181139 | 63 | 90 | 2.6 | 5.2 | 0.00 | 0.05 | 0.04 | 74 | 1013.6 |
| 20260507180939 | 63 | 112 | 3.5 | 3.5 | 0.00 | 0.05 | 0.04 | 74 | 1013.6 |
| 20260507180738 | 63 | 112 | 2.6 | 5.2 | 0.00 | 0.05 | 0.04 | 74 | 1013.7 |
| 20260507180541 | 64 | 135 | 2.6 | 3.5 | 0.00 | 0.05 | 0.04 | 75 | 1013.7 |
| 20260507180338 | 64 | 135 | 2.6 | 3.5 | 0.00 | 0.05 | 0.04 | 75 | 1013.8 |
| 20260507175938 | 64 | 135 | 4.3 | 7.0 | 0.00 | 0.05 | 0.04 | 75 | 1013.8 |
| 20260507175545 | 64 | 112 | 3.5 | 7.8 | 0.00 | 0.05 | 0.04 | 75 | 1013.7 |
| 20260507175137 | 64 | 135 | 2.6 | 3.5 | 0.00 | 0.05 | 0.04 | 74 | 1013.6 |
| 20260507174938 | 64 | 90 | 2.6 | 5.2 | 0.00 | 0.05 | 0.04 | 74 | 1013.6 |
| 20260507174737 | 64 | 180 | 1.7 | 3.5 | 0.00 | 0.05 | 0.04 | 74 | 1013.6 |
| 20260507174543 | 64 | 158 | 3.5 | 6.1 | 0.00 | 0.05 | 0.04 | 74 | 1013.6 |
| 20260507174338 | 64 | 202 | 3.5 | 6.1 | 0.00 | 0.05 | 0.04 | 74 | 1013.4 |
| 20260507174140 | 64 | 90 | 3.5 | 5.2 | 0.00 | 0.05 | 0.04 | 74 | 1013.6 |
| 20260507173941 | 64 | 180 | 2.6 | 3.5 | 0.00 | 0.05 | 0.04 | 74 | 1013.5 |
| 20260507173738 | 64 | 202 | 1.7 | 1.7 | 0.00 | 0.05 | 0.04 | 73 | 1013.5 |
| 20260507173338 | 64 | 112 | 2.6 | 3.5 | 0.00 | 0.05 | 0.04 | 73 | 1013.5 |
| 20260507173140 | 64 | 112 | 2.6 | 3.5 | 0.00 | 0.05 | 0.04 | 73 | 1013.4 |
| 20260507172937 | 64 | 180 | 1.7 | 3.5 | 0.00 | 0.05 | 0.04 | 73 | 1013.6 |
| 20260507172737 | 65 | 90 | 2.6 | 3.5 | 0.00 | 0.05 | 0.04 | 73 | 1013.4 |
| 20260507172544 | 65 | 180 | 1.7 | 3.5 | 0.00 | 0.05 | 0.04 | 73 | 1013.4 |
| 20260507172140 | 65 | 112 | 1.7 | 5.2 | 0.00 | 0.05 | 0.04 | 72 | 1013.5 |
| 20260507171938 | 65 | 90 | 1.7 | 1.7 | 0.00 | 0.05 | 0.04 | 71 | 1013.4 |
| 20260507171544 | 65 | 135 | 1.7 | 3.5 | 0.00 | 0.05 | 0.04 | 71 | 1013.5 |
| 20260507171139 | 65 | 158 | 4.3 | 7.0 | 0.00 | 0.05 | 0.04 | 70 | 1013.5 |
| 20260507170940 | 65 | 90 | 0.9 | 1.7 | 0.00 | 0.05 | 0.04 | 71 | 1013.5 |
| 20260507170738 | 65 | 135 | 1.7 | 1.7 | 0.00 | 0.05 | 0.04 | 70 | 1013.5 |
| 20260507170543 | 65 | 135 | 2.6 | 5.2 | 0.00 | 0.05 | 0.04 | 70 | 1013.6 |
| 20260507170338 | 65 | 180 | 2.6 | 6.1 | 0.00 | 0.05 | 0.04 | 69 | 1013.7 |
| 20260507170139 | 65 | 135 | 3.5 | 5.2 | 0.00 | 0.05 | 0.04 | 69 | 1013.7 |
| 20260507165938 | 65 | 90 | 3.5 | 5.2 | 0.00 | 0.05 | 0.04 | 70 | 1013.6 |
| 20260507165738 | 65 | 90 | 3.5 | 3.5 | 0.00 | 0.05 | 0.04 | 71 | 1013.7 |
| 20260507165339 | 65 | 135 | 1.7 | 5.2 | 0.00 | 0.05 | 0.04 | 70 | 1013.8 |
| 20260507165139 | 65 | 135 | 3.5 | 5.2 | 0.00 | 0.05 | 0.04 | 70 | 1013.8 |
| 20260507164937 | 65 | 112 | 3.5 | 7.0 | 0.00 | 0.05 | 0.04 | 70 | 1013.8 |
| 20260507164737 | 65 | 135 | 1.7 | 3.5 | 0.00 | 0.05 | 0.04 | 71 | 1013.6 |
| 20260507164545 | 65 | 90 | 2.6 | 3.5 | 0.00 | 0.05 | 0.04 | 71 | 1013.8 |
| 20260507164338 | 65 | 90 | 3.5 | 5.2 | 0.00 | 0.05 | 0.04 | 71 | 1013.8 |
| 20260507164139 | 65 | 112 | 3.5 | 5.2 | 0.00 | 0.05 | 0.04 | 71 | 1013.7 |
| 20260507163750 | 65 | 135 | 3.5 | 7.0 | 0.00 | 0.05 | 0.04 | 70 | 1013.7 |
| 20260507163542 | 65 | 112 | 3.5 | 5.2 | 0.00 | 0.05 | 0.04 | 70 | 1013.7 |
| 20260507163140 | 65 | 112 | 5.2 | 7.8 | 0.00 | 0.05 | 0.04 | 70 | 1013.8 |
| 20260507162738 | 66 | 135 | 5.2 | 7.0 | 0.00 | 0.05 | 0.04 | 70 | 1013.8 |
| 20260507162546 | 66 | 112 | 4.3 | 6.1 | 0.00 | 0.05 | 0.04 | 70 | 1013.6 |
| 20260507162339 | 66 | 90 | 2.6 | 3.5 | 0.00 | 0.05 | 0.04 | 70 | 1013.7 |
| 20260507162138 | 66 | 135 | 2.6 | 5.2 | 0.00 | 0.05 | 0.04 | 69 | 1013.7 |
| 20260507161939 | 66 | 112 | 2.6 | 5.2 | 0.00 | 0.05 | 0.04 | 69 | 1013.8 |
| 20260507161545 | 66 | 112 | 1.7 | 3.5 | 0.00 | 0.05 | 0.04 | 68 | 1013.9 |
| 20260507161338 | 66 | 112 | 3.5 | 6.1 | 0.00 | 0.05 | 0.04 | 67 | 1013.7 |
| 20260507160940 | 67 | 112 | 3.5 | 3.5 | 0.00 | 0.05 | 0.04 | 66 | 1013.8 |
| 20260507160737 | 67 | 135 | 4.3 | 7.0 | 0.00 | 0.05 | 0.04 | 66 | 1013.8 |
| 20260507160542 | 67 | 180 | 2.6 | 5.2 | 0.00 | 0.05 | 0.04 | 65 | 1013.9 |
| 20260507160338 | 67 | 158 | 2.6 | 6.1 | 0.00 | 0.05 | 0.04 | 66 | 1013.8 |
| 20260507160140 | 67 | 158 | 3.5 | 3.5 | 0.00 | 0.05 | 0.04 | 66 | 1013.9 |
| 20260507155938 | 67 | 135 | 1.7 | 3.5 | 0.00 | 0.05 | 0.04 | 66 | 1013.9 |
| 20260507155738 | 67 | 158 | 1.7 | 1.7 | 0.00 | 0.05 | 0.04 | 66 | 1013.7 |
| 20260507155545 | 67 | 90 | 3.5 | 6.1 | 0.00 | 0.05 | 0.04 | 65 | 1013.5 |
| 20260507155338 | 67 | 112 | 2.6 | 3.5 | 0.00 | 0.05 | 0.04 | 65 | 1013.6 |
| 20260507155139 | 67 | 202 | 1.7 | 3.5 | 0.00 | 0.05 | 0.04 | 64 | 1013.6 |
| 20260507154938 | 67 | 112 | 2.6 | 6.1 | 0.00 | 0.05 | 0.04 | 64 | 1013.7 |
| 20260507154737 | 67 | 112 | 3.5 | 6.1 | 0.00 | 0.05 | 0.04 | 63 | 1013.7 |
| 20260507154544 | 67 | 180 | 3.5 | 5.2 | 0.00 | 0.05 | 0.04 | 63 | 1013.6 |
| 20260507154338 | 68 | 112 | 2.6 | 3.5 | 0.00 | 0.05 | 0.04 | 62 | 1013.5 |
| 20260507154139 | 68 | 112 | 3.5 | 5.2 | 0.00 | 0.05 | 0.04 | 63 | 1013.5 |
| 20260507153939 | 68 | 112 | 3.5 | 7.0 | 0.00 | 0.05 | 0.04 | 60 | 1013.3 |
| 20260507153738 | 68 | 135 | 2.6 | 5.2 | 0.00 | 0.05 | 0.04 | 61 | 1013.5 |
| 20260507153541 | 68 | 180 | 4.3 | 7.8 | 0.00 | 0.05 | 0.04 | 61 | 1013.3 |
| 20260507153339 | 68 | 135 | 3.5 | 7.0 | 0.00 | 0.05 | 0.04 | 61 | 1013.5 |
| 20260507153138 | 68 | 135 | 4.3 | 7.0 | 0.00 | 0.05 | 0.04 | 59 | 1013.5 |
| 20260507152938 | 68 | 112 | 3.5 | 5.2 | 0.00 | 0.05 | 0.04 | 59 | 1013.5 |
| 20260507152738 | 68 | 158 | 3.5 | 7.0 | 0.00 | 0.05 | 0.04 | 60 | 1013.6 |
| 20260507152338 | 68 | 90 | 3.5 | 6.1 | 0.00 | 0.05 | 0.04 | 59 | 1013.5 |
| 20260507152138 | 68 | 180 | 2.6 | 3.5 | 0.00 | 0.05 | 0.04 | 61 | 1013.7 |
| 20260507151938 | 68 | 135 | 5.2 | 7.8 | 0.00 | 0.05 | 0.04 | 61 | 1013.7 |
| 20260507151544 | 68 | 112 | 3.5 | 7.8 | 0.00 | 0.05 | 0.04 | 59 | 1013.6 |
| 20260507151137 | 68 | 158 | 3.5 | 6.1 | 0.00 | 0.05 | 0.04 | 60 | 1013.5 |
| 20260507150941 | 69 | 158 | 5.2 | 6.1 | 0.00 | 0.05 | 0.04 | 60 | 1013.6 |
| 20260507150738 | 69 | 180 | 5.2 | 11.3 | 0.00 | 0.05 | 0.04 | 59 | 1013.6 |
| 20260507150541 | 69 | 135 | 4.3 | 7.0 | 0.00 | 0.05 | 0.04 | 59 | 1013.6 |
| 20260507150138 | 69 | 158 | 3.5 | 6.1 | 0.00 | 0.05 | 0.04 | 59 | 1013.8 |
| 20260507145938 | 69 | 180 | 4.3 | 9.6 | 0.00 | 0.05 | 0.04 | 57 | 1013.7 |
| 20260507145738 | 69 | 158 | 3.5 | 7.0 | 0.00 | 0.05 | 0.04 | 56 | 1013.7 |
| 20260507145546 | 69 | 202 | 2.6 | 6.1 | 0.00 | 0.05 | 0.04 | 58 | 1013.6 |
| 20260507145339 | 69 | 225 | 5.2 | 7.8 | 0.00 | 0.05 | 0.04 | 58 | 1013.8 |
| 20260507145139 | 68 | 112 | 3.5 | 7.0 | 0.00 | 0.05 | 0.04 | 58 | 1013.9 |
| 20260507144937 | 68 | 112 | 3.5 | 6.1 | 0.00 | 0.05 | 0.04 | 59 | 1013.7 |
| 20260507144740 | 68 | 180 | 4.3 | 9.6 | 0.00 | 0.05 | 0.04 | 59 | 1013.8 |
| 20260507144546 | 68 | 90 | 7.0 | 12.2 | 0.00 | 0.05 | 0.04 | 59 | 1014.1 |
| 20260507144337 | 68 | 90 | 7.0 | 11.3 | 0.00 | 0.05 | 0.04 | 59 | 1014.2 |
| 20260507144138 | 69 | 112 | 5.2 | 9.6 | 0.00 | 0.05 | 0.04 | 59 | 1014.3 |
| 20260507143940 | 69 | 180 | 4.3 | 7.0 | 0.00 | 0.05 | 0.04 | 59 | 1013.9 |
| 20260507143541 | 69 | 135 | 3.5 | 7.0 | 0.00 | 0.05 | 0.04 | 58 | 1013.9 |
| 20260507143336 | 69 | 135 | 5.2 | 7.8 | 0.00 | 0.05 | 0.04 | 57 | 1013.9 |
| 20260507142737 | 69 | 112 | 6.1 | 9.6 | 0.00 | 0.05 | 0.04 | 58 | 1013.8 |
| 20260507142545 | 69 | 90 | 3.5 | 7.0 | 0.00 | 0.05 | 0.04 | 59 | 1013.7 |
| 20260507142337 | 69 | 135 | 6.1 | 7.8 | 0.00 | 0.05 | 0.04 | 60 | 1013.8 |
| 20260507142138 | 70 | 158 | 6.1 | 9.6 | 0.00 | 0.05 | 0.04 | 59 | 1013.9 |
| 20260507141938 | 69 | 158 | 2.6 | 3.5 | 0.00 | 0.05 | 0.04 | 63 | 1014.0 |
| 20260507141738 | 69 | 90 | 5.2 | 7.0 | 0.00 | 0.05 | 0.04 | 62 | 1014.0 |
| 20260507141545 | 69 | 158 | 2.6 | 5.2 | 0.00 | 0.05 | 0.04 | 64 | 1013.9 |
| 20260507141139 | 69 | 112 | 2.6 | 5.2 | 0.00 | 0.05 | 0.04 | 64 | 1014.0 |
| 20260507140939 | 68 | 112 | 3.5 | 5.2 | 0.00 | 0.05 | 0.04 | 65 | 1014.2 |
| 20260507140738 | 67 | 158 | 3.5 | 5.2 | 0.00 | 0.05 | 0.04 | 67 | 1014.2 |
| 20260507140541 | 67 | 90 | 3.5 | 6.1 | 0.00 | 0.05 | 0.04 | 67 | 1014.0 |
| 20260507140337 | 67 | 135 | 5.2 | 7.8 | 0.00 | 0.05 | 0.04 | 66 | 1014.2 |
| 20260507140138 | 67 | 90 | 5.2 | 7.8 | 0.00 | 0.05 | 0.04 | 66 | 1014.3 |
| 20260507135736 | 68 | 135 | 6.1 | 9.6 | 0.00 | 0.05 | 0.04 | 67 | 1014.4 |
| 20260507135544 | 68 | 90 | 3.5 | 6.1 | 0.00 | 0.05 | 0.04 | 66 | 1014.3 |
| 20260507135337 | 68 | 112 | 3.5 | 7.0 | 0.00 | 0.05 | 0.04 | 66 | 1014.4 |
| 20260507134938 | 68 | 135 | 4.3 | 7.0 | 0.00 | 0.05 | 0.04 | 65 | 1014.5 |
| 20260507134738 | 68 | 158 | 3.5 | 7.0 | 0.00 | 0.05 | 0.04 | 65 | 1014.5 |
| 20260507134544 | 68 | 112 | 6.1 | 9.6 | 0.00 | 0.05 | 0.04 | 63 | 1014.3 |
| 20260507134338 | 69 | 112 | 4.3 | 7.0 | 0.00 | 0.05 | 0.04 | 65 | 1014.5 |
| 20260507133939 | 68 | 112 | 4.3 | 7.8 | 0.00 | 0.05 | 0.04 | 68 | 1014.5 |
| 20260507133738 | 68 | 90 | 3.5 | 6.1 | 0.00 | 0.05 | 0.04 | 67 | 1014.4 |
| 20260507133337 | 69 | 112 | 5.2 | 7.8 | 0.00 | 0.05 | 0.04 | 64 | 1014.2 |
| 20260507132937 | 69 | 158 | 2.6 | 5.2 | 0.00 | 0.05 | 0.04 | 67 | 1014.3 |
| 20260507132738 | 68 | 68 | 4.3 | 7.0 | 0.00 | 0.05 | 0.04 | 67 | 1014.4 |
| 20260507132545 | 68 | 180 | 5.2 | 9.6 | 0.00 | 0.05 | 0.04 | 67 | 1014.5 |
| 20260507132338 | 68 | 135 | 6.1 | 7.8 | 0.00 | 0.05 | 0.04 | 66 | 1014.5 |
| 20260507132138 | 69 | 112 | 4.3 | 9.6 | 0.00 | 0.05 | 0.04 | 69 | 1014.6 |
| 20260507131938 | 69 | 135 | 6.1 | 9.6 | 0.00 | 0.05 | 0.04 | 69 | 1014.8 |
| 20260507131737 | 69 | 135 | 5.2 | 7.0 | 0.00 | 0.05 | 0.04 | 69 | 1014.7 |
| 20260507131337 | 69 | 112 | 4.3 | 7.8 | 0.00 | 0.05 | 0.04 | 68 | 1014.8 |
| 20260507130939 | 68 | 90 | 3.5 | 9.6 | 0.00 | 0.05 | 0.04 | 71 | 1014.8 |
| 20260507130737 | 67 | 112 | 3.5 | 6.1 | 0.00 | 0.05 | 0.04 | 70 | 1014.7 |
| 20260507130541 | 67 | 90 | 7.0 | 9.6 | 0.00 | 0.05 | 0.04 | 70 | 1014.8 |
| 20260507130336 | 68 | 158 | 7.0 | 11.3 | 0.00 | 0.05 | 0.04 | 70 | 1014.9 |
| 20260507130137 | 69 | 112 | 7.0 | 9.6 | 0.00 | 0.05 | 0.04 | 71 | 1014.9 |
| 20260507125938 | 69 | 112 | 4.3 | 7.0 | 0.00 | 0.05 | 0.04 | 72 | 1014.9 |
| 20260507125545 | 68 | 180 | 4.3 | 7.8 | 0.00 | 0.05 | 0.04 | 71 | 1014.8 |
| 20260507125338 | 68 | 90 | 3.5 | 7.0 | 0.00 | 0.05 | 0.04 | 72 | 1014.9 |
| 20260507125137 | 67 | 112 | 5.2 | 7.8 | 0.00 | 0.05 | 0.04 | 74 | 1014.7 |
| 20260507124937 | 68 | 112 | 7.8 | 11.3 | 0.00 | 0.05 | 0.04 | 75 | 1014.6 |
| 20260507124737 | 69 | 135 | 5.2 | 7.8 | 0.00 | 0.05 | 0.04 | 74 | 1014.9 |
| 20260507124543 | 69 | 90 | 4.3 | 7.0 | 0.00 | 0.05 | 0.04 | 74 | 1014.8 |
| 20260507124336 | 68 | 158 | 3.5 | 3.5 | 0.00 | 0.05 | 0.04 | 74 | 1015.0 |
| 20260507123939 | 68 | 135 | 5.2 | 7.8 | 0.00 | 0.05 | 0.04 | 75 | 1015.0 |
| 20260507123737 | 69 | 90 | 6.1 | 9.6 | 0.00 | 0.05 | 0.04 | 73 | 1014.8 |
| 20260507123541 | 69 | 90 | 4.3 | 9.6 | 0.00 | 0.05 | 0.04 | 74 | 1015.0 |
| 20260507123139 | 69 | 180 | 3.5 | 9.6 | 0.00 | 0.05 | 0.04 | 71 | 1015.1 |
| 20260507122938 | 68 | 112 | 4.3 | 6.1 | 0.00 | 0.05 | 0.04 | 73 | 1015.0 |
| 20260507122737 | 68 | 112 | 5.2 | 9.6 | 0.00 | 0.05 | 0.04 | 76 | 1015.0 |
| 20260507122543 | 68 | 112 | 7.8 | 9.6 | 0.00 | 0.05 | 0.04 | 74 | 1015.0 |
| 20260507122338 | 69 | 90 | 4.3 | 6.1 | 0.00 | 0.05 | 0.04 | 76 | 1014.9 |
| 20260507122137 | 68 | 90 | 7.0 | 9.6 | 0.00 | 0.05 | 0.04 | 75 | 1015.0 |
| 20260507121938 | 68 | 90 | 3.5 | 7.0 | 0.00 | 0.05 | 0.04 | 76 | 1014.8 |
| 20260507121737 | 67 | 90 | 3.5 | 7.0 | 0.00 | 0.05 | 0.04 | 76 | 1014.8 |
| 20260507121544 | 68 | 90 | 7.8 | 11.3 | 0.00 | 0.05 | 0.04 | 73 | 1015.0 |
| 20260507121337 | 68 | 112 | 4.3 | 7.8 | 0.00 | 0.05 | 0.04 | 75 | 1015.2 |
| 20260507121138 | 68 | 112 | 5.2 | 7.8 | 0.00 | 0.05 | 0.04 | 76 | 1015.2 |
| 20260507120737 | 67 | 90 | 5.2 | 9.6 | 0.00 | 0.05 | 0.04 | 73 | 1015.2 |
| 20260507120541 | 67 | 112 | 7.0 | 9.6 | 0.00 | 0.05 | 0.04 | 75 | 1015.1 |
| 20260507120337 | 67 | 112 | 7.0 | 9.6 | 0.00 | 0.05 | 0.04 | 75 | 1015.1 |
| 20260507120137 | 67 | 112 | 7.0 | 9.6 | 0.00 | 0.05 | 0.04 | 75 | 1015.1 |
| 20260507115939 | 67 | 112 | 3.5 | 6.1 | 0.00 | 0.05 | 0.04 | 75 | 1015.2 |
| 20260507115737 | 67 | 112 | 3.5 | 7.0 | 0.00 | 0.05 | 0.04 | 75 | 1015.4 |
| 20260507115545 | 66 | 112 | 6.1 | 9.6 | 0.00 | 0.05 | 0.04 | 77 | 1015.3 |
| 20260507115337 | 66 | 90 | 3.5 | 6.1 | 0.00 | 0.05 | 0.04 | 78 | 1015.2 |
| 20260507115138 | 66 | 112 | 4.3 | 9.6 | 0.00 | 0.05 | 0.04 | 77 | 1015.3 |
| 20260507114937 | 67 | 135 | 7.0 | 9.6 | 0.00 | 0.05 | 0.04 | 76 | 1015.4 |
| 20260507114544 | 68 | 135 | 6.1 | 7.8 | 0.00 | 0.05 | 0.04 | 73 | 1015.3 |
| 20260507114337 | 68 | 68 | 6.1 | 7.8 | 0.00 | 0.05 | 0.04 | 73 | 1015.3 |
| 20260507114137 | 67 | 112 | 2.6 | 5.2 | 0.00 | 0.05 | 0.04 | 75 | 1015.4 |
| 20260507113941 | 67 | 135 | 4.3 | 9.6 | 0.00 | 0.05 | 0.04 | 74 | 1015.3 |
| 20260507113737 | 67 | 112 | 3.5 | 5.2 | 0.00 | 0.05 | 0.04 | 75 | 1015.3 |
| 20260507113542 | 67 | 112 | 3.5 | 7.0 | 0.00 | 0.05 | 0.04 | 76 | 1015.4 |
| 20260507113337 | 67 | 135 | 4.3 | 6.1 | 0.00 | 0.05 | 0.04 | 76 | 1015.5 |
| 20260507113138 | 67 | 180 | 3.5 | 7.0 | 0.00 | 0.05 | 0.04 | 76 | 1015.6 |
| 20260507112938 | 67 | 112 | 2.6 | 3.5 | 0.00 | 0.05 | 0.04 | 77 | 1015.5 |
| 20260507112738 | 67 | 135 | 4.3 | 7.0 | 0.00 | 0.05 | 0.04 | 78 | 1015.5 |
| 20260507112544 | 67 | 158 | 2.6 | 3.5 | 0.00 | 0.05 | 0.04 | 80 | 1015.7 |
| 20260507112338 | 67 | 112 | 3.5 | 7.0 | 0.00 | 0.05 | 0.04 | 78 | 1015.6 |
| 20260507112138 | 67 | 135 | 3.5 | 3.5 | 0.00 | 0.05 | 0.04 | 80 | 1015.9 |
| 20260507111937 | 67 | 180 | 3.5 | 6.1 | 0.00 | 0.05 | 0.04 | 79 | 1015.7 |
| 20260507111737 | 67 | 112 | 3.5 | 9.6 | 0.00 | 0.05 | 0.04 | 80 | 1015.8 |
| 20260507111543 | 67 | 158 | 3.5 | 6.1 | 0.00 | 0.05 | 0.04 | 79 | 1015.7 |
| 20260507111339 | 67 | 158 | 3.5 | 7.0 | 0.00 | 0.05 | 0.04 | 79 | 1015.8 |
| 20260507110939 | 67 | 135 | 3.5 | 5.2 | 0.00 | 0.05 | 0.04 | 80 | 1015.7 |
| 20260507110737 | 66 | 202 | 3.5 | 6.1 | 0.00 | 0.05 | 0.04 | 81 | 1015.5 |
| 20260507110540 | 66 | 135 | 5.2 | 9.6 | 0.00 | 0.05 | 0.04 | 81 | 1015.8 |
| 20260507110337 | 66 | 90 | 4.3 | 7.0 | 0.00 | 0.05 | 0.04 | 81 | 1015.7 |
| 20260507105738 | 66 | 158 | 1.7 | 3.5 | 0.00 | 0.05 | 0.04 | 83 | 1015.6 |
| 20260507105337 | 66 | 112 | 1.7 | 3.5 | 0.00 | 0.05 | 0.04 | 84 | 1015.7 |
| 20260507105138 | 66 | 135 | 7.0 | 11.3 | 0.00 | 0.05 | 0.04 | 83 | 1015.8 |
| 20260507104937 | 66 | 225 | 4.3 | 7.0 | 0.00 | 0.05 | 0.04 | 83 | 1015.9 |
| 20260507104738 | 67 | 112 | 3.5 | 5.2 | 0.00 | 0.05 | 0.04 | 83 | 1015.8 |
| 20260507104339 | 66 | 135 | 3.5 | 7.0 | 0.00 | 0.05 | 0.04 | 84 | 1016.0 |
| 20260507103941 | 66 | 158 | 4.3 | 7.0 | 0.00 | 0.05 | 0.04 | 84 | 1015.8 |
| 20260507103738 | 66 | 135 | 2.6 | 3.5 | 0.00 | 0.05 | 0.04 | 85 | 1015.8 |
| 20260507103541 | 66 | 112 | 3.5 | 7.0 | 0.00 | 0.05 | 0.04 | 85 | 1015.7 |
| 20260507102937 | 65 | 112 | 3.5 | 9.6 | 0.00 | 0.05 | 0.04 | 85 | 1015.6 |
| 20260507102544 | 65 | 180 | 1.7 | 3.5 | 0.00 | 0.05 | 0.04 | 86 | 1015.7 |
| 20260507102337 | 65 | 112 | 3.5 | 6.1 | 0.00 | 0.05 | 0.04 | 85 | 1015.8 |
| 20260507102138 | 65 | 292 | 3.5 | 5.2 | 0.00 | 0.05 | 0.04 | 85 | 1015.6 |
| 20260507101938 | 65 | 90 | 3.5 | 5.2 | 0.00 | 0.05 | 0.04 | 86 | 1015.7 |
| 20260507101738 | 65 | 112 | 3.5 | 5.2 | 0.00 | 0.05 | 0.04 | 85 | 1015.9 |
| 20260507101545 | 65 | 135 | 3.5 | 5.2 | 0.00 | 0.05 | 0.04 | 86 | 1015.7 |
| 20260507101337 | 65 | 158 | 3.5 | 6.1 | 0.00 | 0.05 | 0.04 | 86 | 1015.7 |
| 20260507101137 | 65 | 202 | 4.3 | 9.6 | 0.00 | 0.05 | 0.04 | 86 | 1015.8 |
| 20260507100738 | 65 | 135 | 5.2 | 7.0 | 0.00 | 0.05 | 0.04 | 85 | 1015.6 |
| 20260507100338 | 65 | 158 | 3.5 | 5.2 | 0.00 | 0.05 | 0.04 | 85 | 1016.0 |
| 20260507100138 | 65 | 180 | 1.7 | 3.5 | 0.00 | 0.05 | 0.04 | 85 | 1015.8 |
| 20260507095937 | 65 | 112 | 3.5 | 7.0 | 0.00 | 0.05 | 0.04 | 85 | 1015.6 |
| 20260507095738 | 65 | 135 | 3.5 | 6.1 | 0.00 | 0.05 | 0.04 | 85 | 1015.5 |
| 20260507095543 | 65 | 135 | 2.6 | 5.2 | 0.00 | 0.05 | 0.04 | 84 | 1015.7 |
| 20260507095336 | 66 | 135 | 3.5 | 6.1 | 0.00 | 0.05 | 0.04 | 84 | 1015.6 |
| 20260507094937 | 66 | 158 | 3.5 | 5.2 | 0.00 | 0.05 | 0.04 | 84 | 1015.7 |
| 20260507094337 | 66 | 112 | 3.5 | 6.1 | 0.00 | 0.05 | 0.04 | 83 | 1015.5 |
| 20260507094139 | 66 | 112 | 3.5 | 5.2 | 0.00 | 0.05 | 0.04 | 83 | 1015.4 |
| 20260507093939 | 67 | 135 | 5.2 | 7.8 | 0.00 | 0.05 | 0.04 | 83 | 1015.3 |
| 20260507093737 | 67 | 135 | 1.7 | 5.2 | 0.00 | 0.05 | 0.04 | 83 | 1015.2 |
| 20260507093540 | 66 | 158 | 4.3 | 7.0 | 0.00 | 0.05 | 0.04 | 83 | 1015.4 |
| 20260507093137 | 66 | 180 | 3.5 | 6.1 | 0.00 | 0.05 | 0.04 | 83 | 1015.5 |
| 20260507092937 | 66 | 180 | 2.6 | 6.1 | 0.00 | 0.05 | 0.04 | 83 | 1015.6 |
| 20260507092739 | 66 | 202 | 3.5 | 5.2 | 0.00 | 0.05 | 0.04 | 84 | 1015.5 |
| 20260507092544 | 66 | 135 | 4.3 | 6.1 | 0.00 | 0.05 | 0.04 | 84 | 1015.4 |
| 20260507092338 | 66 | 158 | 4.3 | 7.0 | 0.00 | 0.05 | 0.04 | 84 | 1015.5 |
| 20260507092138 | 66 | 158 | 3.5 | 7.0 | 0.00 | 0.05 | 0.04 | 84 | 1015.5 |
| 20260507091938 | 66 | 135 | 3.5 | 7.0 | 0.00 | 0.05 | 0.04 | 84 | 1015.5 |
| 20260507091737 | 66 | 158 | 3.5 | 6.1 | 0.00 | 0.05 | 0.04 | 85 | 1015.6 |
| 20260507091544 | 66 | 248 | 5.2 | 9.6 | 0.00 | 0.05 | 0.04 | 85 | 1015.6 |
| 20260507091136 | 65 | 135 | 4.3 | 9.6 | 0.00 | 0.05 | 0.04 | 87 | 1015.5 |
| 20260507090940 | 65 | 112 | 3.5 | 9.6 | 0.00 | 0.05 | 0.04 | 88 | 1015.4 |
| 20260507090737 | 65 | 112 | 1.7 | 3.5 | 0.00 | 0.05 | 0.04 | 89 | 1015.3 |
| 20260507090540 | 65 | 135 | 1.7 | 3.5 | 0.00 | 0.05 | 0.04 | 90 | 1015.3 |
| 20260507090337 | 64 | 202 | 3.5 | 7.0 | 0.00 | 0.05 | 0.04 | 90 | 1015.4 |
| 20260507090137 | 64 | 112 | 5.2 | 7.0 | 0.00 | 0.05 | 0.04 | 90 | 1015.3 |
| 20260507085939 | 64 | 112 | 4.3 | 7.8 | 0.00 | 0.05 | 0.04 | 91 | 1015.4 |
| 20260507085738 | 64 | 112 | 4.3 | 7.8 | 0.00 | 0.05 | 0.04 | 92 | 1015.1 |
| 20260507085543 | 64 | 158 | 2.6 | 3.5 | 0.00 | 0.05 | 0.04 | 92 | 1015.2 |
| 20260507085337 | 64 | 135 | 3.5 | 6.1 | 0.00 | 0.05 | 0.04 | 92 | 1015.3 |
| 20260507085136 | 64 | 135 | 4.3 | 7.8 | 0.00 | 0.05 | 0.04 | 93 | 1015.5 |
| 20260507084736 | 64 | 158 | 3.5 | 6.1 | 0.00 | 0.05 | 0.04 | 93 | 1015.6 |
| 20260507084337 | 63 | 135 | 2.6 | 3.5 | 0.00 | 0.05 | 0.04 | 94 | 1015.4 |
| 20260507084137 | 63 | 135 | 3.5 | 6.1 | 0.00 | 0.05 | 0.04 | 94 | 1015.4 |
| 20260507083939 | 63 | 158 | 1.7 | 3.5 | 0.00 | 0.05 | 0.04 | 94 | 1015.3 |
| 20260507083737 | 64 | 135 | 2.6 | 5.2 | 0.00 | 0.05 | 0.04 | 94 | 1015.1 |
| 20260507083541 | 64 | 112 | 3.5 | 3.5 | 0.00 | 0.05 | 0.04 | 94 | 1015.1 |
| 20260507083337 | 63 | 112 | 3.5 | 7.0 | 0.00 | 0.05 | 0.04 | 94 | 1015.0 |
| 20260507083136 | 63 | 112 | 4.3 | 7.8 | 0.00 | 0.05 | 0.04 | 94 | 1015.1 |
| 20260507082938 | 63 | 135 | 4.3 | 7.8 | 0.00 | 0.05 | 0.04 | 94 | 1015.0 |
| 20260507082736 | 63 | 135 | 7.0 | 9.6 | 0.00 | 0.05 | 0.04 | 95 | 1015.0 |
| 20260507082544 | 63 | 135 | 3.5 | 5.2 | 0.00 | 0.05 | 0.04 | 95 | 1015.0 |
| 20260507082336 | 63 | 158 | 2.6 | 3.5 | 0.00 | 0.05 | 0.04 | 95 | 1014.9 |
| 20260507081937 | 63 | 112 | 3.5 | 5.2 | 0.00 | 0.05 | 0.04 | 95 | 1015.0 |
| 20260507081737 | 63 | 112 | 3.5 | 5.2 | 0.00 | 0.05 | 0.04 | 95 | 1015.1 |
| 20260507081544 | 63 | 112 | 5.2 | 9.6 | 0.00 | 0.05 | 0.04 | 95 | 1015.0 |
| 20260507081337 | 63 | 68 | 3.5 | 5.2 | 0.00 | 0.05 | 0.04 | 95 | 1015.0 |
| 20260507081137 | 63 | 68 | 3.5 | 5.2 | 0.00 | 0.05 | 0.04 | 95 | 1015.0 |
| 20260507080939 | 63 | 112 | 5.2 | 7.0 | 0.00 | 0.05 | 0.04 | 95 | 1015.3 |
| 20260507080737 | 63 | 90 | 3.5 | 6.1 | 0.00 | 0.05 | 0.04 | 95 | 1015.1 |
| 20260507080337 | 63 | 135 | 3.5 | 6.1 | 0.00 | 0.05 | 0.04 | 95 | 1015.2 |
| 20260507075937 | 63 | 68 | 3.5 | 7.0 | 0.00 | 0.05 | 0.04 | 95 | 1015.4 |
| 20260507075543 | 63 | 112 | 3.5 | 5.2 | 0.00 | 0.05 | 0.04 | 95 | 1015.4 |
| 20260507075337 | 63 | 135 | 3.5 | 7.8 | 0.00 | 0.05 | 0.04 | 95 | 1015.4 |
| 20260507074737 | 63 | 68 | 3.5 | 6.1 | 0.00 | 0.05 | 0.04 | 95 | 1015.3 |
| 20260507074138 | 63 | 68 | 3.5 | 6.1 | 0.00 | 0.05 | 0.04 | 95 | 1014.8 |
| 20260507073939 | 63 | 90 | 5.2 | 7.0 | 0.00 | 0.05 | 0.04 | 95 | 1015.0 |
| 20260507073137 | 63 | 68 | 4.3 | 7.8 | 0.00 | 0.05 | 0.04 | 95 | 1014.9 |
| 20260507072937 | 63 | 45 | 4.3 | 7.8 | 0.00 | 0.05 | 0.04 | 95 | 1015.1 |
| 20260507072544 | 63 | 68 | 2.6 | 3.5 | 0.00 | 0.05 | 0.04 | 95 | 1014.9 |
| 20260507072136 | 63 | 68 | 3.5 | 6.1 | 0.00 | 0.05 | 0.04 | 95 | 1015.0 |
| 20260507071938 | 63 | 68 | 6.1 | 7.8 | 0.00 | 0.05 | 0.04 | 95 | 1015.0 |
| 20260507071737 | 63 | 68 | 3.5 | 6.1 | 0.00 | 0.05 | 0.04 | 95 | 1015.1 |
| 20260507071545 | 63 | 45 | 3.5 | 5.2 | 0.00 | 0.05 | 0.04 | 95 | 1015.2 |
| 20260507071337 | 63 | 22 | 2.6 | 3.5 | 0.00 | 0.05 | 0.04 | 95 | 1015.0 |
| 20260507071138 | 63 | 45 | 6.1 | 7.0 | 0.00 | 0.05 | 0.04 | 95 | 1015.3 |
| 20260507070737 | 62 | 45 | 2.6 | 3.5 | 0.00 | 0.05 | 0.04 | 95 | 1015.3 |
| 20260507070541 | 62 | 0 | 2.6 | 3.5 | 0.00 | 0.05 | 0.04 | 95 | 1015.6 |
| 20260507070337 | 63 | 22 | 2.6 | 5.2 | 0.00 | 0.05 | 0.04 | 95 | 1015.6 |
| 20260507070138 | 63 | 45 | 1.7 | 1.7 | 0.00 | 0.05 | 0.04 | 95 | 1015.8 |
| 20260507065937 | 63 | 338 | 0.0 | 1.7 | 0.00 | 0.05 | 0.04 | 95 | 1015.7 |
| 20260507065544 | 63 | 22 | 1.7 | 3.5 | 0.00 | 0.05 | 0.04 | 95 | 1016.0 |
| 20260507065138 | 63 | 338 | 0.0 | 0.0 | 0.00 | 0.05 | 0.04 | 95 | 1016.1 |
| 20260507064937 | 63 | 315 | 0.9 | 1.7 | 0.00 | 0.05 | 0.04 | 95 | 1015.9 |
| 20260507064737 | 63 | 112 | 0.0 | 1.7 | 0.00 | 0.05 | 0.04 | 95 | 1016.2 |
| 20260507064544 | 63 | 22 | 0.9 | 1.7 | 0.00 | 0.05 | 0.04 | 95 | 1016.4 |
| 20260507064337 | 62 | 90 | 2.6 | 5.2 | 0.00 | 0.05 | 0.04 | 95 | 1016.1 |
| 20260507063941 | 62 | 68 | 3.5 | 6.1 | 0.00 | 0.05 | 0.04 | 95 | 1015.6 |
| 20260507063738 | 62 | 0 | 3.5 | 6.1 | 0.00 | 0.05 | 0.04 | 95 | 1015.5 |
| 20260507063541 | 62 | 45 | 7.0 | 9.6 | 0.00 | 0.05 | 0.04 | 95 | 1015.4 |
| 20260507063138 | 62 | 45 | 3.5 | 7.0 | 0.00 | 0.05 | 0.04 | 95 | 1015.3 |
| 20260507062938 | 62 | 68 | 4.3 | 6.1 | 0.00 | 0.05 | 0.04 | 95 | 1015.1 |
| 20260507062737 | 62 | 0 | 3.5 | 7.0 | 0.00 | 0.05 | 0.04 | 95 | 1015.1 |
| 20260507062337 | 62 | 68 | 3.5 | 6.1 | 0.00 | 0.05 | 0.04 | 95 | 1015.0 |
| 20260507062137 | 62 | 0 | 3.5 | 7.0 | 0.00 | 0.05 | 0.04 | 95 | 1015.0 |
| 20260507061938 | 62 | 45 | 3.5 | 7.8 | 0.00 | 0.05 | 0.04 | 95 | 1014.8 |
| 20260507061737 | 62 | 45 | 4.3 | 7.0 | 0.00 | 0.05 | 0.04 | 95 | 1015.1 |
| 20260507061544 | 62 | 338 | 2.6 | 3.5 | 0.00 | 0.05 | 0.04 | 95 | 1015.8 |
| 20260507061338 | 62 | 22 | 1.7 | 1.7 | 0.00 | 0.05 | 0.04 | 95 | 1016.1 |
| 20260507061136 | 63 | 315 | 0.0 | 1.7 | 0.00 | 0.05 | 0.04 | 95 | 1016.5 |
| 20260507060939 | 63 | 338 | 0.0 | 1.7 | 0.00 | 0.05 | 0.04 | 95 | 1016.3 |
| 20260507060737 | 62 | 22 | 0.9 | 1.7 | 0.00 | 0.05 | 0.04 | 95 | 1016.3 |
| 20260507060541 | 62 | 22 | 0.9 | 1.7 | 0.00 | 0.05 | 0.04 | 95 | 1016.3 |
| 20260507060337 | 62 | 22 | 0.9 | 1.7 | 0.00 | 0.05 | 0.04 | 95 | 1016.3 |
| 20260507060202 | 62 | 22 | 0.9 | 1.7 | 0.00 | 0.05 | 0.04 | 95 | 1016.3 |
| 20260507055937 | 62 | 315 | 1.7 | 3.5 | 0.00 | 0.05 | 0.04 | 95 | 1016.2 |
| 20260507055738 | 62 | 315 | 0.9 | 1.7 | 0.00 | 0.05 | 0.04 | 95 | 1016.4 |
| 20260507055544 | 62 | 315 | 0.9 | 1.7 | 0.00 | 0.05 | 0.04 | 95 | 1016.5 |
| 20260507055336 | 62 | 315 | 0.9 | 1.7 | 0.00 | 0.05 | 0.04 | 95 | 1016.4 |
| 20260507055137 | 62 | 315 | 1.7 | 3.5 | 0.00 | 0.05 | 0.04 | 95 | 1016.4 |
| 20260507054938 | 62 | 315 | 0.9 | 1.7 | 0.00 | 0.05 | 0.04 | 95 | 1016.5 |
| 20260507054737 | 62 | 315 | 0.0 | 1.7 | 0.00 | 0.05 | 0.04 | 95 | 1016.3 |
| 20260507054543 | 62 | 315 | 0.0 | 0.0 | 0.00 | 0.05 | 0.04 | 95 | 1016.2 |
| 20260507054140 | 62 | 338 | 0.0 | 0.0 | 0.00 | 0.05 | 0.04 | 95 | 1016.2 |
| 20260507053338 | 61 | 22 | 1.7 | 3.5 | 0.00 | 0.05 | 0.04 | 95 | 1016.3 |
| 20260507053138 | 61 | 45 | 0.9 | 1.7 | 0.00 | 0.05 | 0.04 | 95 | 1016.2 |
| 20260507052937 | 61 | 315 | 0.9 | 1.7 | 0.00 | 0.05 | 0.04 | 95 | 1016.1 |
| 20260507052737 | 61 | 315 | 1.7 | 3.5 | 0.00 | 0.05 | 0.04 | 95 | 1016.1 |
| 20260507052542 | 61 | 338 | 0.0 | 0.0 | 0.00 | 0.05 | 0.04 | 95 | 1016.2 |
| 20260507052337 | 61 | 338 | 0.0 | 0.0 | 0.00 | 0.05 | 0.04 | 95 | 1016.1 |
| 20260507052139 | 61 | 338 | 0.0 | 1.7 | 0.00 | 0.05 | 0.04 | 95 | 1016.2 |
| 20260507051937 | 61 | 0 | 0.9 | 1.7 | 0.00 | 0.05 | 0.04 | 95 | 1016.2 |
| 20260507051737 | 61 | 315 | 0.9 | 3.5 | 0.00 | 0.05 | 0.04 | 95 | 1016.2 |
| 20260507051544 | 61 | 315 | 1.7 | 1.7 | 0.00 | 0.05 | 0.04 | 95 | 1016.2 |
| 20260507051338 | 61 | 315 | 1.7 | 3.5 | 0.00 | 0.05 | 0.04 | 95 | 1016.2 |
| 20260507051138 | 61 | 292 | 1.7 | 3.5 | 0.00 | 0.05 | 0.04 | 95 | 1016.2 |
| 20260507050940 | 61 | 292 | 1.7 | 3.5 | 0.00 | 0.05 | 0.04 | 95 | 1016.1 |
| 20260507050738 | 61 | 292 | 1.7 | 3.5 | 0.00 | 0.05 | 0.04 | 95 | 1016.4 |
| 20260507050543 | 61 | 338 | 1.7 | 1.7 | 0.00 | 0.05 | 0.04 | 95 | 1016.4 |
| 20260507050338 | 61 | 315 | 1.7 | 3.5 | 0.00 | 0.05 | 0.04 | 95 | 1016.2 |
| 20260507050139 | 61 | 315 | 1.7 | 3.5 | 0.00 | 0.05 | 0.04 | 95 | 1016.4 |
| 20260507045938 | 61 | 0 | 1.7 | 3.5 | 0.00 | 0.05 | 0.04 | 95 | 1016.1 |
| 20260507045544 | 61 | 315 | 2.6 | 3.5 | 0.00 | 0.05 | 0.04 | 95 | 1016.3 |
| 20260507045337 | 61 | 338 | 3.5 | 5.2 | 0.00 | 0.05 | 0.04 | 95 | 1016.2 |
| 20260507044938 | 61 | 315 | 1.7 | 3.5 | 0.00 | 0.05 | 0.04 | 95 | 1016.1 |
| 20260507044737 | 61 | 315 | 1.7 | 3.5 | 0.00 | 0.05 | 0.04 | 95 | 1016.3 |
| 20260507044549 | 61 | 292 | 2.6 | 3.5 | 0.00 | 0.05 | 0.04 | 95 | 1016.2 |
| 20260507044337 | 61 | 315 | 2.6 | 5.2 | 0.00 | 0.05 | 0.04 | 95 | 1016.3 |
| 20260507043942 | 61 | 338 | 3.5 | 6.1 | 0.00 | 0.05 | 0.04 | 95 | 1016.2 |
| 20260507043546 | 61 | 270 | 1.7 | 1.7 | 0.00 | 0.05 | 0.04 | 95 | 1016.2 |
| 20260507043337 | 61 | 292 | 2.6 | 6.1 | 0.00 | 0.05 | 0.04 | 95 | 1016.3 |
| 20260507043138 | 61 | 315 | 1.7 | 1.7 | 0.00 | 0.05 | 0.04 | 95 | 1016.1 |
| 20260507042939 | 61 | 292 | 3.5 | 6.1 | 0.00 | 0.05 | 0.04 | 95 | 1016.1 |
| 20260507042738 | 61 | 315 | 1.7 | 3.5 | 0.00 | 0.05 | 0.04 | 95 | 1015.9 |
| 20260507042547 | 61 | 292 | 1.7 | 3.5 | 0.00 | 0.05 | 0.04 | 95 | 1015.8 |
| 20260507042138 | 61 | 315 | 1.7 | 3.5 | 0.00 | 0.05 | 0.04 | 95 | 1015.5 |
| 20260507041939 | 61 | 315 | 1.7 | 5.2 | 0.00 | 0.05 | 0.04 | 95 | 1015.4 |
| 20260507041739 | 61 | 315 | 2.6 | 5.2 | 0.00 | 0.05 | 0.04 | 95 | 1015.5 |
| 20260507041544 | 61 | 315 | 1.7 | 3.5 | 0.00 | 0.05 | 0.04 | 95 | 1015.3 |
| 20260507041339 | 61 | 315 | 3.5 | 5.2 | 0.00 | 0.05 | 0.04 | 95 | 1015.3 |
| 20260507041139 | 61 | 315 | 2.6 | 3.5 | 0.00 | 0.05 | 0.04 | 95 | 1015.3 |
| 20260507040939 | 61 | 315 | 2.6 | 5.2 | 0.00 | 0.05 | 0.04 | 95 | 1015.2 |
| 20260507040738 | 61 | 315 | 2.6 | 5.2 | 0.00 | 0.05 | 0.04 | 95 | 1015.2 |
| 20260507040541 | 61 | 315 | 3.5 | 3.5 | 0.00 | 0.05 | 0.04 | 95 | 1015.1 |
| 20260507040337 | 61 | 292 | 1.7 | 3.5 | 0.00 | 0.05 | 0.04 | 95 | 1015.1 |
| 20260507040137 | 61 | 315 | 1.7 | 3.5 | 0.00 | 0.05 | 0.04 | 95 | 1015.1 |
| 20260507035938 | 61 | 292 | 1.7 | 3.5 | 0.00 | 0.05 | 0.04 | 95 | 1015.0 |
| 20260507035736 | 61 | 315 | 3.5 | 6.1 | 0.00 | 0.05 | 0.04 | 95 | 1014.9 |
| 20260507035545 | 61 | 315 | 3.5 | 5.2 | 0.00 | 0.05 | 0.04 | 95 | 1014.9 |
| 20260507035337 | 61 | 292 | 3.5 | 3.5 | 0.00 | 0.05 | 0.04 | 95 | 1015.2 |
| 20260507035137 | 61 | 270 | 3.5 | 6.1 | 0.00 | 0.05 | 0.04 | 95 | 1015.2 |
| 20260507034938 | 61 | 270 | 3.5 | 6.1 | 0.00 | 0.05 | 0.04 | 95 | 1015.1 |
| 20260507034737 | 61 | 292 | 3.5 | 5.2 | 0.00 | 0.05 | 0.04 | 95 | 1015.0 |
| 20260507034544 | 61 | 292 | 3.5 | 5.2 | 0.00 | 0.05 | 0.04 | 95 | 1015.0 |
| 20260507034338 | 61 | 338 | 1.7 | 1.7 | 0.00 | 0.05 | 0.04 | 95 | 1014.8 |
| 20260507034138 | 61 | 315 | 1.7 | 3.5 | 0.00 | 0.05 | 0.04 | 95 | 1014.9 |
| 20260507033939 | 61 | 292 | 0.9 | 1.7 | 0.00 | 0.05 | 0.04 | 95 | 1014.6 |
| 20260507033737 | 61 | 338 | 0.0 | 0.0 | 0.00 | 0.05 | 0.04 | 95 | 1014.6 |
| 20260507033338 | 61 | 338 | 0.0 | 1.7 | 0.00 | 0.05 | 0.04 | 95 | 1014.6 |
| 20260507032938 | 61 | 0 | 1.7 | 3.5 | 0.00 | 0.05 | 0.04 | 95 | 1014.5 |
| 20260507032737 | 61 | 0 | 1.7 | 3.5 | 0.01 | 0.05 | 0.04 | 95 | 1014.5 |
| 20260507032337 | 61 | 338 | 0.0 | 0.0 | 0.01 | 0.05 | 0.04 | 95 | 1014.7 |
| 20260507032138 | 61 | 338 | 0.0 | 1.7 | 0.01 | 0.05 | 0.04 | 95 | 1014.9 |
| 20260507031939 | 61 | 315 | 0.0 | 0.0 | 0.01 | 0.05 | 0.04 | 95 | 1014.8 |
| 20260507031737 | 61 | 292 | 0.0 | 0.0 | 0.01 | 0.05 | 0.04 | 95 | 1015.0 |
| 20260507031337 | 61 | 292 | 1.7 | 1.7 | 0.01 | 0.05 | 0.04 | 95 | 1015.3 |
| 20260507030940 | 61 | 292 | 1.7 | 1.7 | 0.01 | 0.05 | 0.04 | 95 | 1015.3 |
| 20260507030737 | 61 | 292 | 0.0 | 0.0 | 0.01 | 0.05 | 0.04 | 95 | 1015.1 |
| 20260507030540 | 61 | 292 | 0.0 | 0.0 | 0.01 | 0.05 | 0.04 | 95 | 1015.1 |
| 20260507030337 | 61 | 292 | 0.0 | 0.0 | 0.01 | 0.05 | 0.04 | 95 | 1015.1 |
| 20260507030136 | 61 | 292 | 0.0 | 0.0 | 0.01 | 0.05 | 0.04 | 95 | 1014.9 |
| 20260507025736 | 61 | 292 | 0.0 | 0.0 | 0.01 | 0.05 | 0.04 | 95 | 1014.9 |
| 20260507025138 | 61 | 338 | 0.0 | 1.7 | 0.01 | 0.05 | 0.04 | 95 | 1014.9 |
| 20260507024938 | 61 | 315 | 0.9 | 1.7 | 0.01 | 0.05 | 0.04 | 95 | 1014.7 |
| 20260507024543 | 61 | 315 | 0.9 | 1.7 | 0.01 | 0.05 | 0.04 | 95 | 1014.7 |
| 20260507024337 | 61 | 338 | 1.7 | 1.7 | 0.01 | 0.05 | 0.04 | 95 | 1014.5 |
| 20260507024137 | 61 | 315 | 1.7 | 3.5 | 0.01 | 0.05 | 0.04 | 95 | 1014.6 |
| 20260507023939 | 61 | 292 | 1.7 | 3.5 | 0.01 | 0.05 | 0.04 | 95 | 1014.9 |
| 20260507023738 | 61 | 315 | 1.7 | 3.5 | 0.01 | 0.05 | 0.04 | 95 | 1015.1 |
| 20260507023542 | 61 | 315 | 1.7 | 1.7 | 0.01 | 0.05 | 0.04 | 95 | 1014.9 |
| 20260507023337 | 61 | 315 | 0.9 | 1.7 | 0.01 | 0.05 | 0.04 | 95 | 1015.0 |
| 20260507023137 | 61 | 338 | 0.9 | 1.7 | 0.01 | 0.05 | 0.04 | 95 | 1015.1 |
| 20260507022938 | 61 | 315 | 0.9 | 1.7 | 0.00 | 0.04 | 0.03 | 95 | 1015.0 |
| 20260507022739 | 61 | 0 | 0.9 | 1.7 | 0.00 | 0.04 | 0.03 | 95 | 1015.0 |
| 20260507022340 | 61 | 315 | 0.9 | 1.7 | 0.00 | 0.04 | 0.03 | 95 | 1015.1 |
| 20260507022136 | 61 | 315 | 0.0 | 1.7 | 0.00 | 0.04 | 0.03 | 95 | 1015.3 |
| 20260507021936 | 61 | 270 | 0.0 | 0.0 | 0.00 | 0.04 | 0.03 | 95 | 1015.1 |
| 20260507021743 | 61 | 270 | 0.0 | 0.0 | 0.00 | 0.04 | 0.03 | 95 | 1015.1 |
| 20260507021543 | 61 | 270 | 0.0 | 0.0 | 0.00 | 0.04 | 0.03 | 95 | 1015.3 |
| 20260507021338 | 61 | 270 | 0.0 | 0.0 | 0.00 | 0.04 | 0.03 | 95 | 1015.2 |
| 20260507020941 | 61 | 270 | 1.7 | 1.7 | 0.00 | 0.04 | 0.03 | 95 | 1015.2 |
| 20260507020737 | 61 | 270 | 1.7 | 3.5 | 0.00 | 0.04 | 0.03 | 95 | 1015.4 |
| 20260507020541 | 61 | 248 | 1.7 | 1.7 | 0.00 | 0.04 | 0.03 | 95 | 1015.5 |
| 20260507020338 | 61 | 248 | 1.7 | 3.5 | 0.00 | 0.04 | 0.03 | 95 | 1015.4 |
| 20260507015937 | 61 | 248 | 1.7 | 1.7 | 0.00 | 0.04 | 0.03 | 95 | 1015.2 |
| 20260507015736 | 61 | 270 | 0.9 | 1.7 | 0.00 | 0.04 | 0.03 | 95 | 1015.3 |
| 20260507015545 | 61 | 248 | 0.0 | 0.0 | 0.00 | 0.04 | 0.03 | 95 | 1015.4 |
| 20260507015338 | 61 | 248 | 0.9 | 1.7 | 0.00 | 0.04 | 0.03 | 95 | 1015.3 |
| 20260507015137 | 61 | 270 | 1.7 | 3.5 | 0.00 | 0.04 | 0.03 | 95 | 1015.3 |
| 20260507014938 | 61 | 225 | 0.9 | 1.7 | 0.00 | 0.04 | 0.03 | 95 | 1015.4 |
| 20260507014736 | 61 | 248 | 0.9 | 1.7 | 0.00 | 0.04 | 0.03 | 95 | 1015.4 |
| 20260507014543 | 61 | 248 | 0.9 | 1.7 | 0.00 | 0.04 | 0.03 | 95 | 1015.4 |
| 20260507014339 | 61 | 225 | 1.7 | 3.5 | 0.00 | 0.04 | 0.03 | 95 | 1015.3 |
| 20260507014139 | 61 | 225 | 1.7 | 3.5 | 0.01 | 0.04 | 0.03 | 95 | 1015.3 |
| 20260507013939 | 61 | 225 | 2.6 | 3.5 | 0.01 | 0.04 | 0.03 | 95 | 1015.5 |
| 20260507013738 | 61 | 225 | 1.7 | 1.7 | 0.01 | 0.04 | 0.03 | 95 | 1015.3 |
| 20260507013547 | 61 | 202 | 0.9 | 1.7 | 0.01 | 0.04 | 0.03 | 95 | 1015.2 |
| 20260507013339 | 61 | 180 | 1.7 | 1.7 | 0.01 | 0.04 | 0.03 | 95 | 1015.1 |
| 20260507012937 | 61 | 202 | 0.9 | 1.7 | 0.02 | 0.04 | 0.03 | 95 | 1014.9 |
| 20260507012738 | 61 | 270 | 0.0 | 1.7 | 0.02 | 0.04 | 0.03 | 95 | 1014.8 |
| 20260507012137 | 61 | 315 | 1.7 | 3.5 | 0.02 | 0.04 | 0.03 | 95 | 1014.3 |
| 20260507011938 | 61 | 315 | 2.6 | 6.1 | 0.02 | 0.04 | 0.03 | 95 | 1014.1 |
| 20260507011737 | 61 | 315 | 1.7 | 3.5 | 0.02 | 0.04 | 0.03 | 95 | 1013.9 |
| 20260507011543 | 61 | 315 | 2.6 | 3.5 | 0.02 | 0.04 | 0.03 | 95 | 1014.1 |
| 20260507011338 | 61 | 315 | 1.7 | 3.5 | 0.02 | 0.04 | 0.03 | 95 | 1014.0 |
| 20260507011138 | 61 | 315 | 1.7 | 3.5 | 0.02 | 0.04 | 0.03 | 95 | 1013.9 |
| 20260507010738 | 61 | 315 | 1.7 | 1.7 | 0.02 | 0.04 | 0.03 | 95 | 1013.9 |
| 20260507010338 | 62 | 338 | 3.5 | 5.2 | 0.02 | 0.04 | 0.03 | 95 | 1013.9 |
| 20260507010138 | 62 | 338 | 1.7 | 3.5 | 0.02 | 0.04 | 0.03 | 95 | 1013.9 |
| 20260507005542 | 62 | 315 | 1.7 | 3.5 | 0.02 | 0.04 | 0.03 | 95 | 1013.8 |
| 20260507005337 | 62 | 315 | 2.6 | 3.5 | 0.02 | 0.04 | 0.03 | 95 | 1013.7 |
| 20260507005137 | 62 | 45 | 1.7 | 3.5 | 0.02 | 0.04 | 0.03 | 94 | 1013.6 |
| 20260507004937 | 62 | 315 | 1.7 | 1.7 | 0.02 | 0.04 | 0.03 | 95 | 1013.8 |
| 20260507004736 | 62 | 292 | 1.7 | 3.5 | 0.02 | 0.04 | 0.03 | 94 | 1013.6 |
| 20260507004543 | 62 | 338 | 2.6 | 5.2 | 0.02 | 0.04 | 0.03 | 94 | 1013.5 |
| 20260507004138 | 62 | 45 | 3.5 | 6.1 | 0.01 | 0.03 | 0.02 | 94 | 1013.2 |
| 20260507003939 | 62 | 68 | 5.2 | 7.8 | 0.01 | 0.03 | 0.02 | 94 | 1013.1 |
| 20260507003738 | 62 | 45 | 5.2 | 7.8 | 0.01 | 0.03 | 0.02 | 94 | 1012.9 |
| 20260507003540 | 62 | 45 | 3.5 | 5.2 | 0.01 | 0.03 | 0.02 | 94 | 1013.8 |
| 20260507003340 | 62 | 338 | 1.7 | 3.5 | 0.00 | 0.02 | 0.01 | 94 | 1014.2 |
| 20260507003137 | 62 | 338 | 1.7 | 3.5 | 0.00 | 0.02 | 0.01 | 94 | 1014.8 |
| 20260507002938 | 62 | 315 | 1.7 | 1.7 | 0.00 | 0.02 | 0.01 | 94 | 1015.0 |
| 20260507002544 | 62 | 292 | 0.9 | 1.7 | 0.00 | 0.02 | 0.01 | 94 | 1015.0 |
| 20260507002337 | 62 | 270 | 1.7 | 1.7 | 0.00 | 0.02 | 0.01 | 94 | 1015.0 |
| 20260507002138 | 62 | 270 | 1.7 | 3.5 | 0.00 | 0.02 | 0.01 | 94 | 1015.1 |
| 20260507001737 | 62 | 315 | 2.6 | 3.5 | 0.00 | 0.02 | 0.01 | 94 | 1014.8 |
| 20260507001339 | 62 | 315 | 0.9 | 1.7 | 0.00 | 0.02 | 0.01 | 94 | 1014.8 |
| 20260507001139 | 62 | 315 | 0.0 | 0.0 | 0.00 | 0.02 | 0.01 | 94 | 1014.9 |
| 20260507000940 | 62 | 315 | 0.0 | 0.0 | 0.00 | 0.02 | 0.01 | 94 | 1014.8 |
| 20260507000739 | 62 | 338 | 0.0 | 1.7 | 0.00 | 0.02 | 0.01 | 94 | 1014.7 |
| 20260507000542 | 62 | 270 | 1.7 | 1.7 | 0.00 | 0.02 | 0.01 | 94 | 1014.8 |
| 20260507000337 | 62 | 270 | 1.7 | 1.7 | 0.00 | 0.02 | 0.01 | 94 | 1015.0 |
| 20260507000139 | 62 | 270 | 1.7 | 1.7 | 0.00 | 0.02 | 0.01 | 94 | 1015.0 |
| 20260506235936 | 62 | 292 | 1.7 | 1.7 | 0.00 | 0.02 | 0.01 | 94 | 1014.7 |
| 20260506235544 | 62 | 315 | 0.9 | 1.7 | 0.00 | 0.02 | 0.01 | 94 | 1014.6 |
| 20260506235139 | 62 | 315 | 0.0 | 0.0 | 0.00 | 0.02 | 0.01 | 94 | 1014.7 |
| 20260506234937 | 62 | 315 | 0.0 | 0.0 | 0.00 | 0.02 | 0.01 | 94 | 1014.7 |
| 20260506234740 | 62 | 315 | 0.0 | 0.0 | 0.00 | 0.02 | 0.01 | 94 | 1014.6 |
| 20260506234544 | 62 | 315 | 0.0 | 1.7 | 0.00 | 0.02 | 0.01 | 94 | 1014.6 |
| 20260506234339 | 62 | 292 | 0.0 | 1.7 | 0.00 | 0.02 | 0.01 | 94 | 1014.5 |
| 20260506234139 | 62 | 315 | 0.9 | 1.7 | 0.00 | 0.02 | 0.01 | 94 | 1014.5 |
| 20260506233940 | 62 | 338 | 0.0 | 1.7 | 0.00 | 0.02 | 0.01 | 94 | 1014.5 |
| 20260506233739 | 62 | 0 | 0.9 | 1.7 | 0.00 | 0.02 | 0.01 | 94 | 1014.3 |
| 20260506233542 | 62 | 0 | 0.0 | 1.7 | 0.00 | 0.02 | 0.01 | 94 | 1014.3 |
| 20260506233337 | 62 | 0 | 0.0 | 1.7 | 0.00 | 0.02 | 0.01 | 94 | 1014.6 |
| 20260506233136 | 62 | 315 | 0.0 | 0.0 | 0.00 | 0.02 | 0.01 | 94 | 1014.5 |
| 20260506232938 | 62 | 315 | 0.0 | 1.7 | 0.00 | 0.02 | 0.01 | 94 | 1014.6 |
| 20260506232738 | 62 | 315 | 0.9 | 1.7 | 0.00 | 0.02 | 0.01 | 94 | 1014.7 |
| 20260506232546 | 62 | 315 | 0.0 | 0.0 | 0.00 | 0.02 | 0.01 | 94 | 1014.8 |
| 20260506232337 | 62 | 315 | 0.0 | 0.0 | 0.00 | 0.02 | 0.01 | 94 | 1014.8 |
| 20260506232137 | 62 | 315 | 0.0 | 0.0 | 0.00 | 0.02 | 0.01 | 94 | 1014.7 |
| 20260506231938 | 62 | 315 | 0.9 | 1.7 | 0.00 | 0.02 | 0.01 | 94 | 1014.8 |
| 20260506231737 | 62 | 338 | 0.9 | 1.7 | 0.01 | 0.02 | 0.01 | 93 | 1014.9 |
| 20260506231543 | 62 | 292 | 1.7 | 1.7 | 0.01 | 0.02 | 0.01 | 93 | 1014.7 |
| 20260506231338 | 62 | 292 | 0.9 | 1.7 | 0.01 | 0.02 | 0.01 | 93 | 1014.8 |
| 20260506231136 | 62 | 0 | 0.9 | 1.7 | 0.01 | 0.02 | 0.01 | 93 | 1014.6 |
| 20260506230940 | 62 | 22 | 0.9 | 1.7 | 0.01 | 0.02 | 0.01 | 93 | 1014.6 |
| 20260506230737 | 62 | 0 | 0.0 | 1.7 | 0.01 | 0.02 | 0.01 | 93 | 1014.7 |
| 20260506230337 | 62 | 315 | 0.9 | 1.7 | 0.01 | 0.02 | 0.01 | 93 | 1014.6 |
| 20260506230137 | 62 | 22 | 0.0 | 1.7 | 0.01 | 0.02 | 0.01 | 93 | 1014.5 |
| 20260506225938 | 62 | 338 | 1.7 | 3.5 | 0.01 | 0.02 | 0.01 | 93 | 1014.7 |
| 20260506225737 | 62 | 45 | 1.7 | 3.5 | 0.01 | 0.02 | 0.01 | 93 | 1014.5 |
| 20260506225544 | 62 | 22 | 1.7 | 3.5 | 0.01 | 0.02 | 0.01 | 93 | 1014.5 |
| 20260506225342 | 62 | 22 | 1.7 | 3.5 | 0.01 | 0.02 | 0.01 | 93 | 1014.4 |
| 20260506225137 | 62 | 45 | 1.7 | 1.7 | 0.01 | 0.02 | 0.01 | 93 | 1014.5 |